,,,PA_Meas_PMT16A,,PR_Meas_QMR101_102,,RH_Meas_QMH101,,SR_Meas_QMS101,,TA_Meas_QMH101,,GenWind,,GenWind,
date,time,status,PA,status,PR,status,RH,status,SR,status,TA,status,DirAvg,status,SpdAvg,
2009-09-17, 00:00:04,VALID,1000.78,VALID,0,VALID,91.2274,VALID,0,VALID,23.1957,VALID,329,VALID,0.228906,
2009-09-17, 00:01:04,VALID,1000.77,VALID,0,VALID,91.7385,VALID,0,VALID,23.1744,VALID,22,VALID,0.583594,
2009-09-17, 00:02:04,VALID,1000.76,VALID,0,VALID,91.6012,VALID,0,VALID,23.1762,VALID,52,VALID,0.844531,
2009-09-17, 00:03:04,VALID,1000.78,VALID,0,VALID,91.2731,VALID,0,VALID,23.1159,VALID,69,VALID,1.22266,
2009-09-17, 00:04:04,VALID,1000.74,VALID,0,VALID,91.2503,VALID,0,VALID,23.0573,VALID,57,VALID,1.30977,
2009-09-17, 00:05:05,VALID,1000.76,VALID,0,VALID,91.2426,VALID,0,VALID,23.0396,VALID,55,VALID,1.29219,
2009-09-17, 00:06:05,VALID,1000.71,VALID,0,VALID,91.1282,VALID,0,VALID,23.0006,VALID,50,VALID,1.43906,
2009-09-17, 00:07:05,VALID,1000.73,VALID,0,VALID,91.2274,VALID,0,VALID,22.9208,VALID,45,VALID,1.4082,
2009-09-17, 00:08:05,VALID,1000.69,VALID,0,VALID,91.3113,VALID,0,VALID,22.9013,VALID,40,VALID,1.25977,
2009-09-17, 00:09:05,VALID,1000.73,VALID,0,VALID,91.3647,VALID,0,VALID,22.903,VALID,42,VALID,1.04727,
2009-09-17, 00:10:05,VALID,1000.72,VALID,0,VALID,91.4715,VALID,0,VALID,22.8623,VALID,38,VALID,1.08945,
2009-09-17, 00:11:05,VALID,1000.69,VALID,0,VALID,91.7004,VALID,0,VALID,22.864,VALID,46,VALID,1.20078,
2009-09-17, 00:12:05,VALID,1000.69,VALID,0,VALID,91.7233,VALID,0,VALID,22.8623,VALID,45,VALID,1.1957,
2009-09-17, 00:13:05,VALID,1000.68,VALID,0,VALID,91.8454,VALID,0,VALID,22.8427,VALID,51,VALID,1.21367,
2009-09-17, 00:14:05,VALID,1000.69,VALID,0,VALID,92.0209,VALID,0,VALID,22.8427,VALID,49,VALID,1.23125,
2009-09-17, 00:15:05,VALID,1000.69,VALID,0,VALID,92.1048,VALID,0,VALID,22.8427,VALID,35,VALID,1.32031,
2009-09-17, 00:16:05,VALID,1000.67,VALID,0,VALID,92.0743,VALID,0,VALID,22.8623,VALID,53,VALID,1.00039,
2009-09-17, 00:17:05,VALID,1000.68,VALID,0,VALID,92.1048,VALID,0,VALID,22.8623,VALID,59,VALID,1.39336,
2009-09-17, 00:18:05,VALID,1000.68,VALID,0,VALID,91.9217,VALID,0,VALID,22.8623,VALID,55,VALID,1.18281,
2009-09-17, 00:19:05,VALID,1000.7,VALID,0,VALID,91.9369,VALID,0,VALID,22.8623,VALID,54,VALID,1.22617,
2009-09-17, 00:20:05,VALID,1000.68,VALID,0,VALID,91.8072,VALID,0,VALID,22.8835,VALID,49,VALID,1.03594,
2009-09-17, 00:21:05,VALID,1000.7,VALID,0,VALID,91.7157,VALID,0,VALID,22.8623,VALID,49,VALID,0.95,
2009-09-17, 00:22:05,VALID,1000.69,VALID,0,VALID,91.5249,VALID,0,VALID,22.8427,VALID,46,VALID,0.765625,
2009-09-17, 00:23:05,VALID,1000.71,VALID,0,VALID,91.3342,VALID,0,VALID,22.8037,VALID,46,VALID,0.343359,
2009-09-17, 00:24:05,VALID,1000.68,VALID,0,VALID,91.5554,VALID,0,VALID,22.7647,VALID,18,VALID,0.692969,
2009-09-17, 00:25:05,VALID,1000.68,VALID,0,VALID,91.708,VALID,0,VALID,22.7664,VALID,8,VALID,0.736719,
2009-09-17, 00:26:05,VALID,1000.67,VALID,0,VALID,91.792,VALID,0,VALID,22.7452,VALID,4,VALID,0.900781,
2009-09-17, 00:27:05,VALID,1000.64,VALID,0,VALID,91.8683,VALID,0,VALID,22.7257,VALID,14,VALID,0.921094,
2009-09-17, 00:28:05,VALID,1000.64,VALID,0,VALID,91.9751,VALID,0,VALID,22.7257,VALID,15,VALID,0.827734,
2009-09-17, 00:29:05,VALID,1000.61,VALID,0,VALID,91.9445,VALID,0,VALID,22.7079,VALID,15,VALID,0.859766,
2009-09-17, 00:30:05,VALID,1000.63,VALID,0,VALID,91.9369,VALID,0,VALID,22.6867,VALID,16,VALID,0.952734,
2009-09-17, 00:31:05,VALID,1000.62,VALID,0,VALID,91.9522,VALID,0,VALID,22.6477,VALID,22,VALID,0.942578,
2009-09-17, 00:32:05,VALID,1000.58,VALID,0,VALID,91.853,VALID,0,VALID,22.6282,VALID,22,VALID,0.773828,
2009-09-17, 00:33:05,VALID,1000.59,VALID,0,VALID,91.8911,VALID,0,VALID,22.5909,VALID,22,VALID,0.573438,
2009-09-17, 00:34:05,VALID,1000.57,VALID,0,VALID,91.8911,VALID,0,VALID,22.5501,VALID,22,VALID,0.343359,
2009-09-17, 00:35:05,VALID,1000.54,VALID,0,VALID,91.8606,VALID,0,VALID,22.5111,VALID,22,VALID,0.359375,
2009-09-17, 00:36:05,VALID,1000.53,VALID,0,VALID,91.9293,VALID,0,VALID,22.4721,VALID,22,VALID,0.409766,
2009-09-17, 00:37:05,VALID,1000.57,VALID,0,VALID,92.3184,VALID,0,VALID,22.4916,VALID,31,VALID,0.619531,
2009-09-17, 00:38:05,VALID,1000.57,VALID,0,VALID,92.4557,VALID,0,VALID,22.5323,VALID,46,VALID,0.582031,
2009-09-17, 00:39:05,VALID,1000.55,VALID,0,VALID,92.5244,VALID,0,VALID,22.5323,VALID,46,VALID,0.688672,
2009-09-17, 00:40:05,VALID,1000.56,VALID,0,VALID,92.4786,VALID,0,VALID,22.5306,VALID,46,VALID,0.617578,
2009-09-17, 00:41:05,VALID,1000.56,VALID,0,VALID,92.3413,VALID,0,VALID,22.5111,VALID,46,VALID,0.708203,
2009-09-17, 00:42:05,VALID,1000.57,VALID,0,VALID,92.3871,VALID,0,VALID,22.5323,VALID,46,VALID,0.574219,
2009-09-17, 00:43:05,VALID,1000.57,VALID,0,VALID,92.4939,VALID,0,VALID,22.5094,VALID,46,VALID,0.386719,
2009-09-17, 00:44:05,VALID,1000.56,VALID,0,VALID,92.5397,VALID,0,VALID,22.5094,VALID,46,VALID,0.342969,
2009-09-17, 00:45:05,VALID,1000.54,VALID,0,VALID,92.5168,VALID,0.112286,VALID,22.5306,VALID,46,VALID,0.387109,
2009-09-17, 00:46:05,VALID,1000.54,VALID,0,VALID,92.2421,VALID,0.112286,VALID,22.4704,VALID,46,VALID,0.295703,
2009-09-17, 00:47:05,VALID,1000.53,VALID,0,VALID,92.3337,VALID,0,VALID,22.4314,VALID,46,VALID,0.191406,
2009-09-17, 00:48:05,VALID,1000.52,VALID,0,VALID,92.5626,VALID,0,VALID,22.4509,VALID,46,VALID,0.160156,
2009-09-17, 00:49:05,VALID,1000.51,VALID,0,VALID,92.6999,VALID,0,VALID,22.4704,VALID,46,VALID,0.317187,
2009-09-17, 00:50:05,VALID,1000.51,VALID,0,VALID,92.8067,VALID,0.112286,VALID,22.4899,VALID,46,VALID,0.372656,
2009-09-17, 00:51:05,VALID,1000.48,VALID,0,VALID,92.883,VALID,0,VALID,22.5094,VALID,46,VALID,0.35625,
2009-09-17, 00:52:05,VALID,1000.49,VALID,0,VALID,92.9059,VALID,0.112286,VALID,22.5484,VALID,46,VALID,0.394922,
2009-09-17, 00:53:05,VALID,1000.49,VALID,0,VALID,92.8448,VALID,0,VALID,22.5484,VALID,46,VALID,0.435547,
2009-09-17, 00:54:05,VALID,1000.49,VALID,0,VALID,92.9211,VALID,0.112286,VALID,22.5679,VALID,46,VALID,0.410547,
2009-09-17, 00:55:05,VALID,1000.48,VALID,0,VALID,92.9669,VALID,0,VALID,22.5874,VALID,46,VALID,0.470703,
2009-09-17, 00:56:05,VALID,1000.47,VALID,0,VALID,92.9517,VALID,0.112286,VALID,22.6282,VALID,46,VALID,0.498437,
2009-09-17, 00:57:05,VALID,1000.45,VALID,0,VALID,92.822,VALID,0.112286,VALID,22.6282,VALID,14,VALID,0.729297,
2009-09-17, 00:58:05,VALID,1000.44,VALID,0,VALID,92.7991,VALID,0.112286,VALID,22.6282,VALID,2,VALID,0.604297,
2009-09-17, 00:59:05,VALID,1000.41,VALID,0,VALID,92.6999,VALID,0,VALID,22.6087,VALID,355,VALID,0.532422,
2009-09-17, 01:00:05,VALID,1000.42,VALID,0,VALID,92.5397,VALID,0,VALID,22.5892,VALID,351,VALID,0.407813,
2009-09-17, 01:01:05,VALID,1000.41,VALID,0,VALID,92.677,VALID,0,VALID,22.5696,VALID,351,VALID,0.364844,
2009-09-17, 01:02:05,VALID,1000.4,VALID,0,VALID,92.7228,VALID,0,VALID,22.5892,VALID,351,VALID,0.547266,
2009-09-17, 01:03:05,VALID,1000.39,VALID,0,VALID,92.7991,VALID,0,VALID,22.5874,VALID,351,VALID,0.517187,
2009-09-17, 01:04:05,VALID,1000.39,VALID,0,VALID,92.822,VALID,0,VALID,22.6069,VALID,350,VALID,0.501562,
2009-09-17, 01:05:05,VALID,1000.39,VALID,0,VALID,92.7991,VALID,0.112286,VALID,22.6069,VALID,349,VALID,0.574219,
2009-09-17, 01:06:05,VALID,1000.34,VALID,0,VALID,92.822,VALID,0,VALID,22.6069,VALID,345,VALID,0.347656,
2009-09-17, 01:07:05,VALID,1000.33,VALID,0,VALID,92.6312,VALID,0,VALID,22.5679,VALID,345,VALID,0.0503906,
2009-09-17, 01:08:05,VALID,1000.33,VALID,0,VALID,92.5549,VALID,0,VALID,22.5501,VALID,345,VALID,0.573438,
2009-09-17, 01:09:05,VALID,1000.31,VALID,0,VALID,92.822,VALID,0,VALID,22.5696,VALID,344,VALID,0.737109,
2009-09-17, 01:10:05,VALID,1000.28,VALID,0,VALID,92.9211,VALID,0.112286,VALID,22.5874,VALID,344,VALID,0.723828,
2009-09-17, 01:11:05,VALID,1000.27,VALID,0,VALID,92.8983,VALID,0,VALID,22.5874,VALID,344,VALID,0.780859,
2009-09-17, 01:12:05,VALID,1000.25,VALID,0,VALID,92.8448,VALID,0,VALID,22.6282,VALID,343,VALID,0.586719,
2009-09-17, 01:13:05,VALID,1000.25,VALID,0,VALID,92.8906,VALID,0,VALID,22.6299,VALID,344,VALID,0.563281,
2009-09-17, 01:14:05,VALID,1000.22,VALID,0,VALID,92.8143,VALID,0,VALID,22.6104,VALID,344,VALID,0.378516,
2009-09-17, 01:15:05,VALID,1000.21,VALID,0,VALID,92.8754,VALID,0,VALID,22.6299,VALID,344,VALID,0.360938,
2009-09-17, 01:16:05,VALID,1000.22,VALID,0,VALID,92.7762,VALID,0,VALID,22.6104,VALID,344,VALID,0.127734,
2009-09-17, 01:17:05,VALID,1000.26,VALID,0,VALID,92.738,VALID,0,VALID,22.5909,VALID,344,VALID,0.270312,
2009-09-17, 01:18:05,VALID,1000.26,VALID,0,VALID,92.7685,VALID,0,VALID,22.5909,VALID,344,VALID,0.14375,
2009-09-17, 01:19:05,VALID,1000.24,VALID,0,VALID,92.7228,VALID,0,VALID,22.5714,VALID,344,VALID,0,
2009-09-17, 01:20:05,VALID,1000.25,VALID,0,VALID,92.7228,VALID,0,VALID,22.5306,VALID,344,VALID,0,
2009-09-17, 01:21:05,VALID,1000.26,VALID,0,VALID,92.7762,VALID,0,VALID,22.5323,VALID,344,VALID,0,
2009-09-17, 01:22:05,VALID,1000.23,VALID,0,VALID,92.7991,VALID,0,VALID,22.5323,VALID,344,VALID,0,
2009-09-17, 01:23:05,VALID,1000.2,VALID,0,VALID,92.6923,VALID,0,VALID,22.5128,VALID,344,VALID,0.290234,
2009-09-17, 01:24:05,VALID,1000.2,VALID,0,VALID,92.6083,VALID,0,VALID,22.4543,VALID,344,VALID,0.333594,
2009-09-17, 01:25:05,VALID,1000.19,VALID,0,VALID,92.7762,VALID,0,VALID,22.4348,VALID,344,VALID,0.302344,
2009-09-17, 01:26:05,VALID,1000.2,VALID,0,VALID,92.7533,VALID,0,VALID,22.3958,VALID,344,VALID,0.340234,
2009-09-17, 01:27:05,VALID,1000.19,VALID,0,VALID,92.8525,VALID,0,VALID,22.3941,VALID,344,VALID,0.276172,
2009-09-17, 01:28:05,VALID,1000.16,VALID,0,VALID,92.9669,VALID,0,VALID,22.4136,VALID,344,VALID,0.0785156,
2009-09-17, 01:29:05,VALID,1000.16,VALID,0,VALID,92.9669,VALID,0.112286,VALID,22.3941,VALID,344,VALID,0,
2009-09-17, 01:30:05,VALID,1000.14,VALID,0,VALID,93.0508,VALID,0,VALID,22.3941,VALID,344,VALID,0,
2009-09-17, 01:31:05,VALID,1000.13,VALID,0,VALID,93.1348,VALID,0,VALID,22.3941,VALID,344,VALID,0.265234,
2009-09-17, 01:32:05,VALID,1000.11,VALID,0,VALID,93.0737,VALID,0,VALID,22.3534,VALID,344,VALID,0.429688,
2009-09-17, 01:33:05,VALID,1000.11,VALID,0,VALID,93.356,VALID,0.112286,VALID,22.4331,VALID,62,VALID,0.630078,
2009-09-17, 01:34:05,VALID,1000.1,VALID,0,VALID,93.234,VALID,0,VALID,22.4526,VALID,70,VALID,0.803516,
2009-09-17, 01:35:05,VALID,1000.1,VALID,0,VALID,92.9669,VALID,0,VALID,22.3924,VALID,80,VALID,1.04336,
2009-09-17, 01:36:05,VALID,1000.12,VALID,0,VALID,92.7609,VALID,0,VALID,22.3551,VALID,81,VALID,1.07187,
2009-09-17, 01:37:05,VALID,1000.1,VALID,0,VALID,92.7685,VALID,0.112286,VALID,22.3534,VALID,81,VALID,0.971094,
2009-09-17, 01:38:05,VALID,1000.11,VALID,0,VALID,92.7457,VALID,0,VALID,22.3551,VALID,81,VALID,1.00508,
2009-09-17, 01:39:05,VALID,1000.1,VALID,0,VALID,92.7991,VALID,0,VALID,22.3339,VALID,80,VALID,0.978906,
2009-09-17, 01:40:05,VALID,1000.11,VALID,0,VALID,92.7151,VALID,0,VALID,22.3339,VALID,69,VALID,1.0668,
2009-09-17, 01:41:05,VALID,1000.14,VALID,0,VALID,92.7457,VALID,0,VALID,22.3551,VALID,66,VALID,1.02188,
2009-09-17, 01:42:05,VALID,1000.11,VALID,0,VALID,92.5778,VALID,0,VALID,22.3161,VALID,55,VALID,0.997266,
2009-09-17, 01:43:05,VALID,1000.13,VALID,0,VALID,92.6388,VALID,0.112286,VALID,22.3161,VALID,54,VALID,0.993359,
2009-09-17, 01:44:05,VALID,1000.15,VALID,0,VALID,92.5626,VALID,0,VALID,22.2966,VALID,48,VALID,1.00234,
2009-09-17, 01:45:05,VALID,1000.14,VALID,0,VALID,92.5168,VALID,0,VALID,22.2576,VALID,39,VALID,1.04023,
2009-09-17, 01:46:05,VALID,1000.15,VALID,0,VALID,92.5397,VALID,0,VALID,22.2186,VALID,38,VALID,0.810156,
2009-09-17, 01:47:05,VALID,1000.18,VALID,0,VALID,92.6007,VALID,0,VALID,22.199,VALID,41,VALID,0.936719,
2009-09-17, 01:48:05,VALID,1000.2,VALID,0,VALID,92.7228,VALID,0,VALID,22.2186,VALID,43,VALID,0.784766,
2009-09-17, 01:49:05,VALID,1000.25,VALID,0,VALID,92.5778,VALID,0,VALID,22.16,VALID,42,VALID,0.660547,
2009-09-17, 01:50:05,VALID,1000.22,VALID,0,VALID,92.6617,VALID,0.112286,VALID,22.16,VALID,42,VALID,0.582422,
2009-09-17, 01:51:05,VALID,1000.23,VALID,0,VALID,92.6694,VALID,0,VALID,22.16,VALID,42,VALID,0.576953,
2009-09-17, 01:52:05,VALID,1000.2,VALID,0,VALID,92.7304,VALID,0.112286,VALID,22.121,VALID,42,VALID,0.545703,
2009-09-17, 01:53:05,VALID,1000.21,VALID,0,VALID,92.7914,VALID,0.112286,VALID,22.121,VALID,42,VALID,0.571094,
2009-09-17, 01:54:05,VALID,1000.19,VALID,0,VALID,92.8067,VALID,0,VALID,22.1015,VALID,42,VALID,0.554297,
2009-09-17, 01:55:05,VALID,1000.16,VALID,0,VALID,92.8754,VALID,0,VALID,22.121,VALID,42,VALID,0.498828,
2009-09-17, 01:56:05,VALID,1000.17,VALID,0,VALID,92.8906,VALID,0.112286,VALID,22.0803,VALID,42,VALID,0.498828,
2009-09-17, 01:57:05,VALID,1000.15,VALID,0,VALID,93.0127,VALID,0,VALID,22.121,VALID,42,VALID,0.529297,
2009-09-17, 01:58:05,VALID,1000.15,VALID,0,VALID,93.028,VALID,0,VALID,22.121,VALID,42,VALID,0.560547,
2009-09-17, 01:59:05,VALID,1000.14,VALID,0,VALID,92.9669,VALID,0.112286,VALID,22.0998,VALID,42,VALID,0.424219,
2009-09-17, 02:00:05,VALID,1000.16,VALID,0,VALID,92.9135,VALID,0.112286,VALID,22.1015,VALID,42,VALID,0.451953,
2009-09-17, 02:01:05,VALID,1000.16,VALID,0,VALID,93.028,VALID,0,VALID,22.1015,VALID,11,VALID,0.581641,
2009-09-17, 02:02:05,VALID,1000.15,VALID,0,VALID,93.0508,VALID,0.112286,VALID,22.1015,VALID,2,VALID,0.6625,
2009-09-17, 02:03:05,VALID,1000.14,VALID,0,VALID,93.0737,VALID,0.112286,VALID,22.121,VALID,1,VALID,0.676953,
2009-09-17, 02:04:05,VALID,1000.14,VALID,0,VALID,93.1424,VALID,0,VALID,22.1194,VALID,1,VALID,0.760547,
2009-09-17, 02:05:05,VALID,1000.14,VALID,0,VALID,93.1271,VALID,0,VALID,22.1405,VALID,1,VALID,0.716406,
2009-09-17, 02:06:05,VALID,1000.13,VALID,0,VALID,93.1195,VALID,0,VALID,22.1405,VALID,1,VALID,0.649609,
2009-09-17, 02:07:05,VALID,1000.11,VALID,0,VALID,92.9974,VALID,0,VALID,22.121,VALID,18,VALID,0.7875,
2009-09-17, 02:08:05,VALID,1000.11,VALID,0,VALID,93.028,VALID,0.112286,VALID,22.0998,VALID,30,VALID,0.819141,
2009-09-17, 02:09:05,VALID,1000.13,VALID,0,VALID,93.0814,VALID,0,VALID,22.121,VALID,42,VALID,0.814844,
2009-09-17, 02:10:05,VALID,1000.11,VALID,0,VALID,93.0356,VALID,0,VALID,22.121,VALID,50,VALID,0.823047,
2009-09-17, 02:11:05,VALID,1000.11,VALID,0,VALID,93.0203,VALID,0.112286,VALID,22.1405,VALID,54,VALID,0.690625,
2009-09-17, 02:12:05,VALID,1000.1,VALID,0,VALID,92.9669,VALID,0,VALID,22.1405,VALID,56,VALID,0.73125,
2009-09-17, 02:13:05,VALID,1000.1,VALID,0,VALID,92.9974,VALID,0,VALID,22.1617,VALID,56,VALID,0.596484,
2009-09-17, 02:14:05,VALID,1000.12,VALID,0,VALID,92.8983,VALID,0,VALID,22.1812,VALID,56,VALID,0.515625,
2009-09-17, 02:15:05,VALID,1000.12,VALID,0,VALID,92.6846,VALID,0,VALID,22.1812,VALID,56,VALID,0.359766,
2009-09-17, 02:16:05,VALID,1000.11,VALID,0,VALID,92.4863,VALID,0,VALID,22.1405,VALID,56,VALID,0.388672,
2009-09-17, 02:17:05,VALID,1000.1,VALID,0,VALID,92.4939,VALID,0,VALID,22.121,VALID,56,VALID,0.571875,
2009-09-17, 02:18:05,VALID,1000.08,VALID,0,VALID,92.3642,VALID,0,VALID,22.1032,VALID,56,VALID,0.394531,
2009-09-17, 02:19:05,VALID,1000.07,VALID,0,VALID,92.3566,VALID,0,VALID,22.082,VALID,56,VALID,0.253906,
2009-09-17, 02:20:05,VALID,1000.08,VALID,0,VALID,92.4405,VALID,0,VALID,22.0837,VALID,56,VALID,0.0820313,
2009-09-17, 02:21:05,VALID,1000.06,VALID,0,VALID,92.4481,VALID,0,VALID,22.0837,VALID,56,VALID,0,
2009-09-17, 02:22:05,VALID,1000.07,VALID,0,VALID,92.4863,VALID,0,VALID,22.0642,VALID,56,VALID,0,
2009-09-17, 02:23:05,VALID,1000.1,VALID,0,VALID,92.6312,VALID,0,VALID,22.0625,VALID,56,VALID,0.2375,
2009-09-17, 02:24:05,VALID,1000.13,VALID,0,VALID,92.6236,VALID,0,VALID,22.0625,VALID,56,VALID,0.409375,
2009-09-17, 02:25:05,VALID,1000.14,VALID,0,VALID,92.6923,VALID,0,VALID,22.0837,VALID,56,VALID,0.677344,
2009-09-17, 02:26:05,VALID,1000.18,VALID,0,VALID,92.6923,VALID,0,VALID,22.0837,VALID,57,VALID,0.749609,
2009-09-17, 02:27:05,VALID,1000.19,VALID,0,VALID,92.7685,VALID,0,VALID,22.082,VALID,61,VALID,0.917969,
2009-09-17, 02:28:05,VALID,1000.22,VALID,0,VALID,92.7914,VALID,0,VALID,22.121,VALID,61,VALID,0.83125,
2009-09-17, 02:29:05,VALID,1000.2,VALID,0,VALID,92.6694,VALID,0,VALID,22.1795,VALID,61,VALID,0.736328,
2009-09-17, 02:30:05,VALID,1000.2,VALID,0,VALID,92.4863,VALID,0,VALID,22.2007,VALID,61,VALID,0.504687,
2009-09-17, 02:31:05,VALID,1000.19,VALID,0,VALID,92.1658,VALID,0,VALID,22.1405,VALID,61,VALID,0.276172,
2009-09-17, 02:32:05,VALID,1000.19,VALID,0,VALID,92.1277,VALID,0,VALID,22.121,VALID,61,VALID,0.233594,
2009-09-17, 02:33:05,VALID,1000.17,VALID,0,VALID,92.1277,VALID,0,VALID,22.1015,VALID,61,VALID,0.231641,
2009-09-17, 02:34:05,VALID,1000.15,VALID,0,VALID,92.1277,VALID,0,VALID,22.1227,VALID,61,VALID,0.195703,
2009-09-17, 02:35:05,VALID,1000.14,VALID,0,VALID,92.0666,VALID,0,VALID,22.0625,VALID,61,VALID,0.3875,
2009-09-17, 02:36:05,VALID,1000.13,VALID,0,VALID,92.059,VALID,0,VALID,22.0642,VALID,61,VALID,0.500781,
2009-09-17, 02:37:05,VALID,1000.13,VALID,0,VALID,92.3108,VALID,0,VALID,22.0642,VALID,61,VALID,0.615625,
2009-09-17, 02:38:05,VALID,1000.14,VALID,0,VALID,92.5397,VALID,0,VALID,22.0837,VALID,61,VALID,0.604297,
2009-09-17, 02:39:05,VALID,1000.15,VALID,0,VALID,92.6465,VALID,0,VALID,22.1032,VALID,61,VALID,0.615625,
2009-09-17, 02:40:05,VALID,1000.16,VALID,0,VALID,92.4176,VALID,0,VALID,22.1015,VALID,61,VALID,0.543359,
2009-09-17, 02:41:05,VALID,1000.12,VALID,0,VALID,92.3489,VALID,0,VALID,22.0625,VALID,43,VALID,0.571875,
2009-09-17, 02:42:05,VALID,1000.13,VALID,0,VALID,92.3337,VALID,0,VALID,22.043,VALID,26,VALID,0.719922,
2009-09-17, 02:43:05,VALID,1000.11,VALID,0,VALID,92.41,VALID,0,VALID,22.0235,VALID,14,VALID,0.886719,
2009-09-17, 02:44:05,VALID,1000.07,VALID,0,VALID,92.3031,VALID,0,VALID,21.9845,VALID,12,VALID,0.75625,
2009-09-17, 02:45:05,VALID,1000.06,VALID,0,VALID,92.471,VALID,0,VALID,21.9845,VALID,12,VALID,0.767187,
2009-09-17, 02:46:05,VALID,1000.05,VALID,0,VALID,92.5702,VALID,0,VALID,21.9862,VALID,17,VALID,0.733203,
2009-09-17, 02:47:05,VALID,1000.08,VALID,0,VALID,92.7151,VALID,0,VALID,21.965,VALID,29,VALID,0.825391,
2009-09-17, 02:48:04,VALID,1000.06,VALID,0,VALID,92.6999,VALID,0,VALID,21.9845,VALID,40,VALID,0.749609,
2009-09-17, 02:49:04,VALID,1000.1,VALID,0,VALID,92.7838,VALID,0,VALID,21.9845,VALID,46,VALID,0.750391,
2009-09-17, 02:50:04,VALID,1000.06,VALID,0,VALID,92.7151,VALID,0,VALID,21.9862,VALID,50,VALID,0.772656,
2009-09-17, 02:51:04,VALID,1000.07,VALID,0,VALID,92.7457,VALID,0,VALID,21.9845,VALID,50,VALID,0.640234,
2009-09-17, 02:52:04,VALID,1000.01,VALID,0,VALID,92.7151,VALID,0,VALID,21.9845,VALID,50,VALID,0.582812,
2009-09-17, 02:53:04,VALID,1000.06,VALID,0,VALID,92.6312,VALID,0,VALID,21.9862,VALID,50,VALID,0.323047,
2009-09-17, 02:54:04,VALID,1000.03,VALID,0,VALID,92.5778,VALID,0,VALID,21.9667,VALID,50,VALID,0.232031,
2009-09-17, 02:55:04,VALID,1000.02,VALID,0,VALID,92.6541,VALID,0,VALID,21.9455,VALID,50,VALID,0.246094,
2009-09-17, 02:56:04,VALID,1000.01,VALID,0,VALID,92.7151,VALID,0,VALID,21.9455,VALID,50,VALID,0.392578,
2009-09-17, 02:57:04,VALID,999.984,VALID,0,VALID,92.7609,VALID,0,VALID,21.965,VALID,50,VALID,0.410156,
2009-09-17, 02:58:04,VALID,999.976,VALID,0,VALID,92.7457,VALID,0,VALID,21.965,VALID,50,VALID,0.377734,
2009-09-17, 02:59:04,VALID,999.975,VALID,0,VALID,92.7457,VALID,0,VALID,21.965,VALID,50,VALID,0.380078,
2009-09-17, 03:00:04,VALID,1000.02,VALID,0,VALID,92.7304,VALID,0,VALID,21.9455,VALID,50,VALID,0.428125,
2009-09-17, 03:01:04,VALID,1000.01,VALID,0,VALID,92.8525,VALID,0,VALID,21.9455,VALID,50,VALID,0.388281,
2009-09-17, 03:02:04,VALID,1000,VALID,0,VALID,92.8677,VALID,0,VALID,21.965,VALID,50,VALID,0.371484,
2009-09-17, 03:03:04,VALID,1000,VALID,0,VALID,92.8754,VALID,0,VALID,21.965,VALID,50,VALID,0.547266,
2009-09-17, 03:04:04,VALID,1000.01,VALID,0,VALID,92.944,VALID,0,VALID,21.965,VALID,50,VALID,0.616406,
2009-09-17, 03:05:04,VALID,999.986,VALID,0,VALID,93.028,VALID,0,VALID,22.0252,VALID,58,VALID,0.721484,
2009-09-17, 03:06:04,VALID,999.986,VALID,0,VALID,92.9974,VALID,0,VALID,22.004,VALID,59,VALID,0.666016,
2009-09-17, 03:07:04,VALID,999.938,VALID,0,VALID,92.8906,VALID,0,VALID,22.004,VALID,60,VALID,0.702734,
2009-09-17, 03:08:04,VALID,999.967,VALID,0,VALID,92.7991,VALID,0,VALID,21.9845,VALID,60,VALID,0.555469,
2009-09-17, 03:09:04,VALID,999.973,VALID,0,VALID,92.6999,VALID,0,VALID,22.0057,VALID,60,VALID,0.586719,
2009-09-17, 03:10:04,VALID,1000,VALID,0,VALID,92.7151,VALID,0,VALID,21.9862,VALID,60,VALID,0.761719,
2009-09-17, 03:11:04,VALID,999.997,VALID,0,VALID,92.7457,VALID,0,VALID,21.965,VALID,60,VALID,0.679297,
2009-09-17, 03:12:04,VALID,999.992,VALID,0,VALID,92.7991,VALID,0,VALID,21.9862,VALID,59,VALID,0.793359,
2009-09-17, 03:13:04,VALID,1000.02,VALID,0,VALID,92.8525,VALID,0.112286,VALID,21.9845,VALID,59,VALID,0.703906,
2009-09-17, 03:14:04,VALID,1000.01,VALID,0,VALID,92.7533,VALID,0,VALID,21.9845,VALID,59,VALID,0.681641,
2009-09-17, 03:15:04,VALID,999.995,VALID,0,VALID,92.7609,VALID,0,VALID,21.965,VALID,59,VALID,0.639453,
2009-09-17, 03:16:04,VALID,999.992,VALID,0,VALID,92.6388,VALID,0,VALID,21.965,VALID,57,VALID,0.686719,
2009-09-17, 03:17:04,VALID,999.985,VALID,0,VALID,92.4405,VALID,0,VALID,21.9065,VALID,55,VALID,0.601953,
2009-09-17, 03:18:04,VALID,999.986,VALID,0,VALID,92.3718,VALID,0,VALID,21.8692,VALID,55,VALID,0.489844,
2009-09-17, 03:19:04,VALID,999.971,VALID,0,VALID,92.4252,VALID,0,VALID,21.8496,VALID,55,VALID,0.399609,
2009-09-17, 03:20:04,VALID,999.958,VALID,0,VALID,92.5168,VALID,0,VALID,21.809,VALID,55,VALID,0.249609,
2009-09-17, 03:21:04,VALID,999.994,VALID,0,VALID,92.5244,VALID,0,VALID,21.7895,VALID,55,VALID,0.028125,
2009-09-17, 03:22:04,VALID,999.987,VALID,0,VALID,92.4939,VALID,0,VALID,21.7716,VALID,55,VALID,0.0046875,
2009-09-17, 03:23:04,VALID,1000.02,VALID,0,VALID,92.6694,VALID,0,VALID,21.731,VALID,55,VALID,0.511719,
2009-09-17, 03:24:04,VALID,1000.06,VALID,0,VALID,92.8143,VALID,0,VALID,21.7505,VALID,55,VALID,0.600391,
2009-09-17, 03:25:04,VALID,1000.08,VALID,0,VALID,92.8677,VALID,0,VALID,21.731,VALID,55,VALID,0.662891,
2009-09-17, 03:26:04,VALID,1000.11,VALID,0,VALID,92.9898,VALID,0,VALID,21.77,VALID,55,VALID,0.764453,
2009-09-17, 03:27:04,VALID,1000.11,VALID,0,VALID,92.9745,VALID,0,VALID,21.77,VALID,55,VALID,0.75,
2009-09-17, 03:28:04,VALID,1000.14,VALID,0,VALID,92.8677,VALID,0,VALID,21.7505,VALID,55,VALID,0.815234,
2009-09-17, 03:29:04,VALID,1000.1,VALID,0,VALID,92.8677,VALID,0,VALID,21.731,VALID,52,VALID,0.874609,
2009-09-17, 03:30:04,VALID,1000.13,VALID,0,VALID,92.8143,VALID,0,VALID,21.7115,VALID,51,VALID,0.740234,
2009-09-17, 03:31:04,VALID,1000.15,VALID,0,VALID,92.822,VALID,0,VALID,21.692,VALID,51,VALID,0.721094,
2009-09-17, 03:32:04,VALID,1000.18,VALID,0,VALID,92.883,VALID,0,VALID,21.692,VALID,51,VALID,0.722656,
2009-09-17, 03:33:04,VALID,1000.16,VALID,0,VALID,92.8754,VALID,0,VALID,21.692,VALID,51,VALID,0.564062,
2009-09-17, 03:34:04,VALID,1000.16,VALID,0,VALID,92.8677,VALID,0,VALID,21.6725,VALID,51,VALID,0.5,
2009-09-17, 03:35:04,VALID,1000.16,VALID,0,VALID,92.9135,VALID,0,VALID,21.6725,VALID,51,VALID,0.576563,
2009-09-17, 03:36:04,VALID,1000.18,VALID,0,VALID,93.028,VALID,0,VALID,21.653,VALID,51,VALID,0.616797,
2009-09-17, 03:37:04,VALID,1000.18,VALID,0,VALID,93.0661,VALID,0,VALID,21.6725,VALID,51,VALID,0.662109,
2009-09-17, 03:38:04,VALID,1000.18,VALID,0,VALID,92.9898,VALID,0,VALID,21.6725,VALID,51,VALID,0.5125,
2009-09-17, 03:39:04,VALID,1000.22,VALID,0,VALID,92.9288,VALID,0,VALID,21.653,VALID,51,VALID,0.537109,
2009-09-17, 03:40:04,VALID,1000.22,VALID,0,VALID,93.0051,VALID,0,VALID,21.6335,VALID,51,VALID,0.596875,
2009-09-17, 03:41:04,VALID,1000.2,VALID,0,VALID,93.2034,VALID,0,VALID,21.653,VALID,51,VALID,0.657812,
2009-09-17, 03:42:04,VALID,1000.22,VALID,0,VALID,93.2797,VALID,0,VALID,21.692,VALID,51,VALID,0.457031,
2009-09-17, 03:43:04,VALID,1000.21,VALID,0,VALID,93.2416,VALID,0,VALID,21.7115,VALID,51,VALID,0.501562,
2009-09-17, 03:44:04,VALID,1000.22,VALID,0,VALID,93.2187,VALID,0,VALID,21.731,VALID,51,VALID,0.411328,
2009-09-17, 03:45:04,VALID,1000.19,VALID,0,VALID,93.2263,VALID,0,VALID,21.731,VALID,51,VALID,0.420703,